Homer, AK

3:28 AM AKST on January 24, 2018 (GMT -0900)
Homer

Weather History for PAHO - August, 2013

Change the Weather History Date:

Sunday, August 18, 2013

  Actual Average Record
Temperature  
Mean Temperature 58 °F -  
Max Temperature 63 °F 60 °F 70 °F (1974)
Min Temperature 53 °F 46 °F 34 °F (1945)
Degree Days  
Heating Degree Days 8    
Growing Degree Days 8 (Base 50)    
Moisture  
Dew Point 51 °F    
Average Humidity 80    
Maximum Humidity 86    
Minimum Humidity 67    
Precipitation  
Precipitation 0.02 in - - ()
Sea Level Pressure  
Sea Level Pressure 29.56 in    
Wind  
Wind Speed 2 mph (East)    
Max Wind Speed 7 mph    
Max Gust Speed -    
Visibility 10 miles    
Events Rain    
Averages and records for this station are not official NWS values.
T = Trace of Precipitation, MM = Missing Value Source: NWS Daily Summary

Daily Weather History Graph

Daily Weather History Graph

Search for Another Location

Airport or City:

Trip Planner

Search our weather history database for the weather conditions in past years. The results will help you decide how hot, cold, wet, or windy it might be!

Date:

Astronomy

Aug. 18, 2013 Rise Set
Actual Time 6:30 AM AKDT 9:47 PM AKDT
Civil Twilight 5:41 AM AKDT 10:36 PM AKDT
Nautical Twilight 4:31 AM AKDT 11:44 PM AKDT
Astronomical Twilight 2:42 AM AKDT 1:37 AM AKDT
Moon 8:12 PM AKDT (8/18) 3:29 AM AKDT (8/18)
Length of Visible Light 16h 55m
Length of Day
15h 17m
Waxing Gibbous, 93% of the Moon is Illuminated
Aug 18
Waxing Gibbous
Aug 20
Full
Aug 28
Last Quarter
Sep 5
New
Sep 12
First Quarter

Hourly Weather History & Observations

Time (AKDT) Temp. Dew Point Humidity Pressure Visibility Wind Dir Wind Speed Gust Speed Precip Events Conditions
12:53 AM 53.1 °F 48.9 °F 86% 29.51 in 10.0 mi Calm Calm - N/A   Mostly Cloudy
1:53 AM 53.1 °F 48.9 °F 86% 29.51 in 5.0 mi Calm Calm - N/A   Mostly Cloudy
2:53 AM 54.0 °F 50.0 °F 86% 29.51 in 10.0 mi North - - N/A   Mostly Cloudy
3:53 AM 54.0 °F 48.9 °F 83% 29.51 in 10.0 mi Calm Calm - N/A   Overcast
4:53 AM 54.0 °F 50.0 °F 86% 29.51 in 10.0 mi SSE 3.5 mph - N/A   Overcast
5:31 AM 53.6 °F 48.2 °F 82% 29.51 in 10.0 mi Calm Calm - N/A   Overcast
5:53 AM 53.1 °F 48.9 °F 86% 29.51 in 10.0 mi Calm Calm - N/A   Overcast
6:53 AM 54.0 °F 50.0 °F 86% 29.51 in 10.0 mi ESE 3.5 mph - N/A   Overcast
7:53 AM 53.1 °F 48.9 °F 86% 29.51 in 10.0 mi ENE 4.6 mph - 0.00 in   Overcast
8:53 AM 55.0 °F 50.0 °F 83% 29.52 in 10.0 mi ENE 4.6 mph - N/A   Mostly Cloudy
9:53 AM 55.9 °F 51.1 °F 84% 29.53 in 10.0 mi East 3.5 mph - 0.01 in Rain Light Rain
10:53 AM 57.9 °F 52.0 °F 81% 29.53 in 10.0 mi East 3.5 mph - 0.01 in Rain Light Rain
11:53 AM 55.0 °F 50.0 °F 83% 29.55 in 10.0 mi ENE 5.8 mph - 0.00 in   Overcast
12:53 PM 57.9 °F 51.1 °F 78% 29.56 in 10.0 mi Calm Calm - N/A   Overcast
1:53 PM 62.1 °F 54.0 °F 75% 29.57 in 10.0 mi SSE 3.5 mph - N/A   Overcast
2:53 PM 62.1 °F 51.1 °F 67% 29.58 in 10.0 mi Calm Calm - N/A   Mostly Cloudy
3:53 PM 61.0 °F 52.0 °F 72% 29.59 in 10.0 mi East 3.5 mph - 0.00 in Rain Light Rain
4:53 PM 61.0 °F 51.1 °F 70% 29.60 in 10.0 mi East 4.6 mph - 0.00 in   Overcast
5:53 PM 61.0 °F 50.0 °F 67% 29.60 in 10.0 mi East 6.9 mph - N/A   Overcast
6:53 PM 61.0 °F 52.0 °F 72% 29.61 in 10.0 mi NE 6.9 mph - N/A   Overcast
7:53 PM 61.0 °F 53.1 °F 75% 29.62 in 10.0 mi NE 5.8 mph - N/A   Overcast
8:53 PM 59.0 °F 53.1 °F 81% 29.63 in 10.0 mi ENE 5.8 mph - N/A   Overcast
9:53 PM 57.9 °F 53.1 °F 84% 29.65 in 10.0 mi ENE 6.9 mph - N/A   Overcast
10:53 PM 57.9 °F 53.1 °F 84% 29.66 in 10.0 mi ENE 4.6 mph - N/A   Overcast
11:53 PM 57.0 °F 52.0 °F 83% 29.67 in 10.0 mi NE 5.8 mph - N/A   Overcast